Total_Precipitation_Accumulation
0.00 0.05 0.26 0.61 1.51 0.88 0.59 0.36 0.26 0.15 0.12 0.07 0.02 0.14 0.17 0.14 0.12 0.23 0.14 0.43 0.16 0.09 0.57 1.25 1.23 0.75 0.35 0.25 0.21 0.12 0.08 0.07 0.05 0.02 0.01 0.01 0.01 0.00 0.00 0.00 0.01 0.03 0.03 0.10 0.06 0.09 0.01 0.02 0.10
0.01 0.09 0.68 1.68 1.55 1.30 0.50 0.13 0.19 0.12 0.02 0.01 0.02 0.05 0.05 0.05 0.01 0.05 0.20 0.28 0.06 0.04 0.26 0.61 0.89 0.55 0.25 0.14 0.07 0.07 0.06 0.03 0.03 0.03 0.01 0.02 0.01 0.00 0.01 0.02 0.02 0.02 0.02 0.04 0.02 0.03 0.04 0.06 0.13
0.04 0.25 2.29 2.23 1.07 0.78 0.25 0.12 0.10 0.05 0.02 0.04 0.04 0.08 0.03 0.05 0.02 0.02 0.05 0.04 0.04 0.06 0.13 0.31 0.36 0.32 0.17 0.12 0.04 0.06 0.04 0.02 0.02 0.01 0.01 0.01 0.02 0.00 0.00 0.01 0.03 0.03 0.01 0.01 0.03 0.08 0.04 0.01 0.02
0.22 1.65 2.57 2.04 0.97 0.22 0.14 0.13 0.07 0.01 0.00 0.02 0.03 0.01 0.01 0.02 0.01 0.01 0.05 0.02 0.03 0.08 0.11 0.16 0.20 0.14 0.15 0.09 0.05 0.02 0.00 0.00 0.00 0.01 0.03 0.03 0.01 0.00 0.00 0.01 0.03 0.02 0.01 0.00 0.01 0.02 0.07 0.04 0.06
0.48 0.88 1.29 1.29 0.40 0.14 0.13 0.12 0.07 0.03 0.02 0.00 0.00 0.01 0.05 0.05 0.01 0.01 0.01 0.02 0.04 0.05 0.05 0.07 0.28 0.16 0.08 0.07 0.03 0.02 0.01 0.00 0.00 0.01 0.03 0.03 0.01 0.00 0.00 0.00 0.00 0.02 0.02 0.00 0.00 0.00 0.03 0.04 0.06
1.36 0.64 0.95 0.34 0.11 0.08 0.16 0.34 0.07 0.03 0.01 0.01 0.00 0.01 0.09 0.04 0.01 0.02 0.01 0.02 0.03 0.02 0.01 0.03 0.08 0.08 0.05 0.04 0.02 0.00 0.00 0.01 0.03 0.07 0.09 0.08 0.04 0.00 0.00 0.00 0.00 0.01 0.00 0.00 0.01 0.00 0.00 0.00 0.04
0.57 1.37 1.61 0.35 0.15 0.17 0.11 0.30 0.03 0.00 0.00 0.00 0.00 0.01 0.08 0.06 0.01 0.00 0.00 0.01 0.03 0.02 0.00 0.02 0.03 0.05 0.02 0.04 0.02 0.00 0.02 0.02 0.04 0.08 0.11 0.11 0.06 0.01 0.00 0.04 0.04 0.00 0.00 0.01 0.09 0.06 0.02 0.05 0.10
0.78 0.71 2.30 0.96 0.77 0.30 0.10 0.06 0.03 0.01 0.00 0.00 0.00 0.00 0.04 0.02 0.00 0.00 0.00 0.01 0.02 0.02 0.02 0.01 0.04 0.04 0.06 0.08 0.09 0.02 0.04 0.04 0.03 0.04 0.10 0.13 0.10 0.06 0.03 0.15 0.11 0.03 0.09 0.12 0.12 0.16 0.10 0.11 0.12
0.20 0.52 0.72 0.43 0.12 0.12 0.18 0.13 0.07 0.01 0.00 0.02 0.04 0.00 0.00 0.00 0.00 0.00 0.00 0.02 0.04 0.05 0.02 0.01 0.01 0.06 0.05 0.06 0.06 0.12 0.04 0.02 0.03 0.06 0.14 0.29 0.29 0.13 0.14 0.21 0.13 0.13 0.09 0.16 0.16 0.19 0.23 0.41 0.25
0.14 0.52 0.30 0.03 0.02 0.03 0.09 0.12 0.01 0.00 0.00 0.01 0.00 0.00 0.00 0.00 0.00 0.00 0.00 0.01 0.02 0.01 0.01 0.05 0.04 0.01 0.01 0.03 0.10 0.11 0.10 0.11 0.08 0.14 0.30 0.63 0.32 0.24 0.19 0.14 0.18 0.12 0.10 0.27 0.32 0.37 0.30 0.23 0.10
0.08 0.25 0.31 0.01 0.00 0.01 0.01 0.00 0.03 0.00 0.00 0.00 0.00 0.00 0.00 0.00 0.00 0.00 0.00 0.00 0.00 0.00 0.00 0.00 0.00 0.00 0.01 0.06 0.05 0.04 0.01 0.04 0.08 0.30 0.28 0.55 0.37 0.38 0.29 0.16 0.23 0.37 0.27 0.29 0.20 0.41 0.08 0.08 0.01
0.01 0.05 0.06 0.01 0.01 0.06 0.07 0.07 0.00 0.00 0.00 0.00 0.00 0.00 0.00 0.00 0.00 0.00 0.00 0.00 0.00 0.00 0.00 0.00 0.00 0.00 0.02 0.05 0.06 0.05 0.02 0.01 0.03 0.08 0.11 0.39 0.54 0.54 0.36 0.32 0.31 0.72 0.34 0.13 0.11 0.13 0.11 0.05 0.07
0.00 0.01 0.02 0.04 0.00 0.02 0.11 0.08 0.06 0.00 0.00 0.00 0.00 0.00 0.00 0.00 0.00 0.00 0.00 0.00 0.00 0.00 0.00 0.00 0.00 0.00 0.01 0.00 0.00 0.02 0.03 0.05 0.03 0.07 0.02 0.22 0.51 0.43 0.27 0.22 0.23 0.20 0.17 0.13 0.15 0.17 0.14 0.04 0.00
0.00 0.00 0.01 0.02 0.02 0.01 0.00 0.01 0.01 0.02 0.00 0.00 0.00 0.00 0.00 0.00 0.00 0.00 0.00 0.00 0.00 0.00 0.00 0.00 0.01 0.05 0.00 0.01 0.15 0.08 0.10 0.12 0.06 0.05 0.02 0.14 0.44 0.53 0.31 0.31 0.26 0.24 0.15 0.30 0.14 0.13 0.11 0.04 0.01
0.00 0.00 0.01 0.01 0.04 0.02 0.02 0.04 0.00 0.04 0.01 0.00 0.00 0.00 0.00 0.00 0.00 0.00 0.00 0.00 0.00 0.00 0.00 0.00 0.00 0.08 0.03 0.05 0.25 0.09 0.06 0.05 0.02 0.03 0.08 0.30 0.35 0.47 0.46 0.49 0.25 0.19 0.17 0.23 0.17 0.16 0.14 0.03 0.00
0.00 0.00 0.00 0.00 0.02 0.02 0.01 0.01 0.00 0.00 0.00 0.00 0.00 0.00 0.00 0.00 0.00 0.00 0.00 0.00 0.00 0.00 0.00 0.00 0.00 0.00 0.00 0.06 0.09 0.01 0.00 0.02 0.10 0.13 0.14 0.21 0.33 0.33 0.33 0.73 0.32 0.22 0.25 0.24 0.21 0.13 0.09 0.00 0.00
0.00 0.00 0.00 0.00 0.00 0.01 0.01 0.08 0.00 0.00 0.00 0.00 0.00 0.00 0.00 0.00 0.00 0.00 0.00 0.00 0.00 0.00 0.00 0.00 0.00 0.01 0.05 0.07 0.13 0.18 0.16 0.19 0.11 0.05 0.14 0.20 0.20 0.18 0.22 0.47 0.77 0.21 0.22 0.22 0.18 0.09 0.02 0.00 0.00
0.00 0.00 0.00 0.00 0.00 0.01 0.00 0.10 0.02 0.00 0.00 0.02 0.01 0.00 0.00 0.00 0.00 0.00 0.00 0.00 0.00 0.00 0.00 0.00 0.00 0.02 0.13 0.31 0.34 0.23 0.10 0.09 0.04 0.08 0.17 0.12 0.16 0.12 0.19 0.26 0.40 0.20 0.19 0.16 0.14 0.04 0.00 0.00 0.00
0.00 0.00 0.00 0.00 0.00 0.00 0.00 0.01 0.04 0.00 0.01 0.19 0.13 0.01 0.00 0.00 0.00 0.00 0.00 0.00 0.00 0.00 0.00 0.00 0.00 0.01 0.16 0.07 0.04 0.03 0.02 0.02 0.02 0.08 0.05 0.10 0.10 0.11 0.20 0.19 0.26 0.22 0.09 0.07 0.03 0.01 0.00 0.00 0.00
0.00 0.00 0.00 0.00 0.00 0.00 0.00 0.00 0.00 0.00 0.00 0.01 0.16 0.09 0.03 0.00 0.00 0.00 0.00 0.00 0.00 0.00 0.00 0.00 0.00 0.00 0.03 0.03 0.03 0.02 0.01 0.00 0.01 0.02 0.05 0.05 0.03 0.07 0.12 0.24 0.15 0.19 0.09 0.05 0.01 0.01 0.02 0.00 0.00
0.00 0.00 0.00 0.00 0.00 0.00 0.00 0.00 0.00 0.00 0.00 0.01 0.04 0.06 0.02 0.00 0.00 0.00 0.00 0.00 0.00 0.00 0.00 0.00 0.00 0.00 0.00 0.02 0.03 0.08 0.08 0.04 0.02 0.01 0.02 0.01 0.01 0.03 0.15 0.23 0.13 0.13 0.09 0.13 0.07 0.00 0.00 0.01 0.01
0.00 0.00 0.00 0.00 0.00 0.00 0.00 0.00 0.00 0.00 0.00 0.00 0.01 0.05 0.01 0.01 0.01 0.00 0.00 0.00 0.00 0.00 0.00 0.00 0.00 0.00 0.00 0.02 0.02 0.04 0.01 0.01 0.01 0.00 0.00 0.00 0.00 0.00 0.02 0.07 0.08 0.06 0.05 0.09 0.07 0.00 0.00 0.00 0.00
0.00 0.00 0.00 0.00 0.00 0.00 0.00 0.00 0.00 0.00 0.00 0.00 0.00 0.01 0.01 0.01 0.01 0.00 0.00 0.00 0.00 0.00 0.00 0.00 0.00 0.00 0.00 0.00 0.00 0.02 0.00 0.00 0.00 0.00 0.00 0.00 0.04 0.01 0.01 0.02 0.05 0.05 0.04 0.05 0.03 0.00 0.00 0.00 0.00
0.00 0.00 0.00 0.00 0.00 0.00 0.00 0.00 0.00 0.00 0.00 0.00 0.00 0.00 0.00 0.01 0.01 0.00 0.00 0.00 0.00 0.00 0.00 0.00 0.00 0.00 0.00 0.00 0.00 0.01 0.01 0.00 0.00 0.00 0.00 0.00 0.00 0.00 0.00 0.02 0.06 0.07 0.04 0.02 0.00 0.00 0.00 0.00 0.00
0.00 0.00 0.00 0.00 0.00 0.00 0.00 0.00 0.00 0.00 0.00 0.00 0.00 0.00 0.00 0.00 0.00 0.00 0.00 0.00 0.00 0.00 0.00 0.00 0.00 0.00 0.00 0.00 0.00 0.00 0.00 0.00 0.00 0.00 0.00 0.00 0.00 0.00 0.00 0.01 0.04 0.01 0.01 0.01 0.01 0.01 0.00 0.00 0.00
0.00 0.00 0.00 0.00 0.00 0.00 0.00 0.00 0.00 0.00 0.00 0.00 0.00 0.00 0.00 0.00 0.00 0.00 0.00 0.00 0.00 0.00 0.00 0.00 0.00 0.00 0.00 0.00 0.00 0.00 0.00 0.00 0.00 0.00 0.00 0.00 0.00 0.00 0.00 0.00 0.00 0.00 0.01 0.00 0.01 0.00 0.00 0.00 0.00
0.00 0.00 0.00 0.00 0.00 0.00 0.00 0.00 0.00 0.00 0.00 0.00 0.00 0.00 0.00 0.00 0.00 0.00 0.00 0.00 0.00 0.00 0.00 0.00 0.00 0.00 0.00 0.00 0.00 0.00 0.00 0.00 0.00 0.00 0.00 0.00 0.00 0.00 0.00 0.00 0.00 0.00 0.00 0.00 0.00 0.00 0.00 0.00 0.00
0.00 0.00 0.00 0.00 0.00 0.00 0.00 0.00 0.00 0.00 0.00 0.00 0.00 0.00 0.00 0.00 0.00 0.00 0.00 0.00 0.00 0.00 0.00 0.00 0.00 0.00 0.00 0.00 0.00 0.00 0.00 0.00 0.00 0.00 0.00 0.00 0.00 0.00 0.00 0.00 0.00 0.00 0.00 0.00 0.00 0.00 0.00 0.00 0.00
0.00 0.00 0.00 0.00 0.00 0.00 0.00 0.00 0.00 0.00 0.00 0.00 0.00 0.00 0.00 0.00 0.00 0.00 0.00 0.00 0.00 0.00 0.00 0.00 0.00 0.00 0.00 0.00 0.00 0.00 0.00 0.00 0.00 0.00 0.00 0.00 0.00 0.00 0.00 0.01 0.00 0.00 0.00 0.00 0.00 0.00 0.00 0.00 0.00
0.00 0.00 0.00 0.00 0.00 0.00 0.00 0.00 0.00 0.00 0.00 0.00 0.00 0.00 0.00 0.00 0.00 0.00 0.00 0.00 0.00 0.00 0.00 0.00 0.00 0.00 0.00 0.00 0.00 0.00 0.00 0.00 0.00 0.00 0.00 0.00 0.00 0.00 0.00 0.00 0.00 0.00 0.00 0.00 0.00 0.00 0.00 0.00 0.00